Hourly Weather Kabul

Today, 11 August, Tuesday

Time Temperature Precipitation Wind Pressure Humidity
00:00 +26°C° 0 mm 1 mps 609 mmHg 40%
01:00 +26°C° 0 mm 1 mps 609 mmHg 40%
02:00 +25°C° 0 mm 1 mps 609 mmHg 39%
03:00 +24°C° 0 mm 1 mps 608 mmHg 39%
04:00 +24°C° 0 mm 1 mps 608 mmHg 39%
05:00 +23°C° 0 mm 1 mps 608 mmHg 40%
06:00 +24°C° 0 mm 1 mps 609 mmHg 36%
07:00 +25°C° 0 mm 1 mps 609 mmHg 32%
08:00 +26°C° 0 mm 1 mps 610 mmHg 28%
09:00 +28°C° 0 mm 1 mps 610 mmHg 26%
10:00 +29°C° 0 mm 1 mps 610 mmHg 23%
11:00 +30°C° 0 mm 2 mps 610 mmHg 21%
12:00 +32°C° 0 mm 2 mps 610 mmHg 19%
13:00 +34°C° 0 mm 2 mps 610 mmHg 17%
14:00 +35°C° 0 mm 2 mps 610 mmHg 15%
15:00 +35°C° 0 mm 3 mps 610 mmHg 15%
16:00 +35°C° 0 mm 4 mps 610 mmHg 14%
17:00 +36°C° 0 mm 5 mps 609 mmHg 13%
18:00 +34°C° 0 mm 5 mps 609 mmHg 15%
19:00 +32°C° 0 mm 4 mps 609 mmHg 17%
20:00 +29°C° 0 mm 3 mps 609 mmHg 20%
21:00 +28°C° 0 mm 2 mps 609 mmHg 22%
22:00 +27°C° 0 mm 2 mps 608 mmHg 24%
23:00 +26°C° 0 mm 1 mps 608 mmHg 26%

Tomorrow, 12 August, Wednesday

Time Temperature Precipitation Wind Pressure Humidity
00:00 +25°C° 0 mm 1 mps 608 mmHg 27%
01:00 +24°C° 0 mm 1 mps 608 mmHg 29%
02:00 +23°C° 0 mm 1 mps 607 mmHg 30%
03:00 +23°C° 0 mm 1 mps 607 mmHg 31%
04:00 +22°C° 0 mm 1 mps 607 mmHg 32%
05:00 +22°C° 0 mm 1 mps 606 mmHg 33%
06:00 +23°C° 0 mm 1 mps 607 mmHg 29%
07:00 +24°C° 0 mm 1 mps 608 mmHg 26%
08:00 +26°C° 0 mm 1 mps 609 mmHg 23%
09:00 +27°C° 0 mm 1 mps 609 mmHg 21%
10:00 +29°C° 0 mm 1 mps 609 mmHg 19%
11:00 +30°C° 0 mm 1 mps 609 mmHg 17%
12:00 +32°C° 0 mm 1 mps 609 mmHg 15%
13:00 +34°C° 0 mm 2 mps 610 mmHg 14%
14:00 +35°C° 0 mm 2 mps 610 mmHg 13%
15:00 +36°C° 0 mm 3 mps 610 mmHg 12%
16:00 +36°C° 0 mm 4 mps 609 mmHg 11%
17:00 +36°C° 0 mm 5 mps 609 mmHg 11%
18:00 +34°C° 0 mm 5 mps 609 mmHg 13%
19:00 +32°C° 0 mm 4 mps 609 mmHg 14%
20:00 +29°C° 0 mm 3 mps 608 mmHg 16%
21:00 +28°C° 0 mm 3 mps 608 mmHg 18%
22:00 +26°C° 0 mm 2 mps 608 mmHg 19%
23:00 +25°C° 0 mm 2 mps 608 mmHg 21%

Day after tomorrow, 13 August, Thursday

Time Temperature Precipitation Wind Pressure Humidity
00:00 +24°C° 0 mm 2 mps 608 mmHg 22%
01:00 +24°C° 0 mm 1 mps 607 mmHg 23%
02:00 +23°C° 0 mm 1 mps 607 mmHg 23%
03:00 +22°C° 0 mm 1 mps 607 mmHg 24%
04:00 +21°C° 0 mm 1 mps 606 mmHg 25%
05:00 +21°C° 0 mm 1 mps 606 mmHg 25%
06:00 +22°C° 0 mm 1 mps 607 mmHg 22%
07:00 +23°C° 0 mm 1 mps 607 mmHg 20%
08:00 +25°C° 0 mm 1 mps 608 mmHg 17%
09:00 +27°C° 0 mm 1 mps 608 mmHg 15%
10:00 +28°C° 0 mm 1 mps 609 mmHg 13%
11:00 +30°C° 0 mm 1 mps 609 mmHg 11%
12:00 +31°C° 0 mm 2 mps 609 mmHg 10%
13:00 +34°C° 0 mm 2 mps 609 mmHg 8%
14:00 +35°C° 0 mm 3 mps 609 mmHg 7%
15:00 +35°C° 0 mm 4 mps 609 mmHg 7%
16:00 +35°C° 0 mm 5 mps 609 mmHg 8%
17:00 +34°C° 0 mm 7 mps 608 mmHg 8%
18:00 +32°C° 0 mm 5 mps 608 mmHg 10%
19:00 +29°C° 0 mm 4 mps 608 mmHg 12%
20:00 +27°C° 0 mm 3 mps 608 mmHg 14%
21:00 +26°C° 0 mm 3 mps 608 mmHg 16%
22:00 +25°C° 0 mm 2 mps 608 mmHg 17%
23:00 +24°C° 0 mm 1 mps 608 mmHg 19%

14 August, Friday

Time Temperature Precipitation Wind Pressure Humidity
00:00 +23°C° 0 mm 1 mps 607 mmHg 20%
01:00 +22°C° 0 mm 1 mps 607 mmHg 22%
02:00 +22°C° 0 mm 1 mps 606 mmHg 23%
03:00 +21°C° 0 mm 1 mps 606 mmHg 24%
04:00 +21°C° 0 mm 1 mps 606 mmHg 25%
05:00 +20°C° 0 mm 1 mps 606 mmHg 25%
06:00 +22°C° 0 mm 1 mps 606 mmHg 23%
07:00 +23°C° 0 mm 1 mps 607 mmHg 20%
08:00 +25°C° 0 mm 1 mps 608 mmHg 17%
09:00 +26°C° 0 mm 1 mps 608 mmHg 16%
10:00 +28°C° 0 mm 1 mps 608 mmHg 14%
11:00 +30°C° 0 mm 1 mps 609 mmHg 13%
12:00 +31°C° 0 mm 1 mps 609 mmHg 11%
13:00 +32°C° 0 mm 1 mps 609 mmHg 10%
14:00 +35°C° 0 mm 2 mps 609 mmHg 9%
15:00 +35°C° 0 mm 2 mps 609 mmHg 9%
16:00 +35°C° 0 mm 3 mps 609 mmHg 9%
17:00 +35°C° 0 mm 4 mps 608 mmHg 9%
18:00 +33°C° 0 mm 4 mps 608 mmHg 12%
19:00 +30°C° 0 mm 3 mps 608 mmHg 14%
20:00 +28°C° 0 mm 2 mps 607 mmHg 17%
21:00 +27°C° 0 mm 2 mps 607 mmHg 18%
22:00 +26°C° 0 mm 2 mps 607 mmHg 20%
23:00 +25°C° 0 mm 2 mps 607 mmHg 21%

15 August, Saturday

Time Temperature Precipitation Wind Pressure Humidity
00:00 +24°C° 0 mm 1 mps 607 mmHg 23%
01:00 +23°C° 0 mm 1 mps 606 mmHg 25%
02:00 +22°C° 0 mm 1 mps 606 mmHg 27%
03:00 +22°C° 0 mm 1 mps 606 mmHg 28%
04:00 +21°C° 0 mm 1 mps 605 mmHg 28%
05:00 +21°C° 0 mm 1 mps 605 mmHg 29%
06:00 +22°C° 0 mm 1 mps 606 mmHg 26%
07:00 +24°C° 0 mm 1 mps 607 mmHg 23%
08:00 +25°C° 0 mm 1 mps 607 mmHg 21%
09:00 +27°C° 0 mm 1 mps 608 mmHg 18%
10:00 +29°C° 0 mm 1 mps 608 mmHg 16%
11:00 +30°C° 0 mm 1 mps 608 mmHg 14%
12:00 +32°C° 0 mm 1 mps 608 mmHg 12%
13:00 +33°C° 0 mm 1 mps 608 mmHg 11%
14:00 +35°C° 0 mm 2 mps 609 mmHg 9%
15:00 +36°C° 0 mm 2 mps 609 mmHg 9%
16:00 +36°C° 0 mm 3 mps 609 mmHg 9%
17:00 +36°C° 0 mm 3 mps 609 mmHg 8%
18:00 +34°C° 0 mm 3 mps 608 mmHg 10%
19:00 +31°C° 0 mm 3 mps 608 mmHg 12%
20:00 +29°C° 0 mm 2 mps 608 mmHg 13%
21:00 +28°C° 0 mm 2 mps 607 mmHg 14%
22:00 +27°C° 0 mm 2 mps 607 mmHg 16%
23:00 +26°C° 0 mm 2 mps 607 mmHg 17%

16 August, Sunday

Time Temperature Precipitation Wind Pressure Humidity
00:00 +25°C° 0 mm 1 mps 607 mmHg 18%
01:00 +24°C° 0 mm 1 mps 606 mmHg 19%
02:00 +23°C° 0 mm 1 mps 606 mmHg 20%
03:00 +22°C° 0 mm 1 mps 606 mmHg 20%
04:00 +21°C° 0 mm 1 mps 606 mmHg 21%
05:00 +21°C° 0 mm 1 mps 606 mmHg 21%
06:00 +23°C° 0 mm 1 mps 606 mmHg 19%
07:00 +24°C° 0 mm 1 mps 607 mmHg 16%
08:00 +24°C° 0 mm 0 mps 608 mmHg 13%
09:00 +28°C° 0 mm 1 mps 609 mmHg 12%
10:00 +30°C° 0 mm 1 mps 609 mmHg 11%
11:00 +32°C° 0 mm 1 mps 609 mmHg 9%
12:00 +33°C° 0 mm 1 mps 610 mmHg 9%
13:00 +35°C° 0 mm 2 mps 610 mmHg 8%
14:00 +37°C° 0 mm 2 mps 610 mmHg 7%
15:00 +37°C° 0 mm 3 mps 610 mmHg 7%
16:00 +37°C° 0 mm 4 mps 610 mmHg 7%
17:00 +39°C° 0 mm 5 mps 610 mmHg 8%
18:00 +35°C° 0 mm 4 mps 609 mmHg 9%
19:00 +33°C° 0 mm 3 mps 609 mmHg 11%
20:00 +30°C° 0 mm 2 mps 608 mmHg 13%
21:00 +29°C° 0 mm 2 mps 608 mmHg 14%
22:00 +27°C° 0 mm 2 mps 608 mmHg 15%
23:00 +26°C° 0 mm 2 mps 608 mmHg 16%
Show more